Weather History for Anderson, SC

Change the Weather History Date:

Tuesday, April 15, 2014

  Actual Average Record
Temperature  
Mean Temperature 54 °F -  
Max Temperature 66 °F 73 °F 89 °F (2006)
Min Temperature 39 °F 52 °F 30 °F (1950)
Degree Days  
Heating Degree Days 10    
Growing Degree Days 4 (Base 50)    
Moisture  
Dew Point 56 °F    
Average Humidity 87    
Maximum Humidity 100    
Minimum Humidity 46    
Precipitation  
Precipitation 0.58 in - - ()
Sea Level Pressure  
Sea Level Pressure 29.75 in    
Wind  
Wind Speed 9 mph (SW)    
Max Wind Speed 20 mph    
Max Gust Speed 26 mph    
Visibility 9 miles    
Events Rain    
Averages and records for this station are not official NWS values.
T = Trace of Precipitation, MM = Missing Value Source: NWS Daily Summary

Daily Weather History Graph

Daily Weather History Graph

Search for Another Location

Airport:

Trip Planner

Search our weather history database for the weather conditions in past years. The results will help you decide how hot, cold, wet, or windy it might be!

Date:

Astronomy

Apr. 15, 2014 Rise Set
Actual Time 6:59 AM EDT 8:02 PM EDT
Civil Twilight 6:33 AM EDT 8:28 PM EDT
Nautical Twilight 6:02 AM EDT 8:59 PM EDT
Astronomical Twilight 5:31 AM EDT 9:31 PM EDT
Moon 8:40 PM EDT (4/15) 7:07 AM EDT (4/15)
Length of Visible Light 13h 55m
Length of Day
13h 03m
Full, 100% of the Moon is Illuminated
Apr 15
Full
Apr 22
Last Quarter
Apr 29
New
May 6
First Quarter
May 14
Full

Hourly Weather History & Observations

Time (EDT) Temp. Windchill Dew Point Humidity Pressure Visibility Wind Dir Wind Speed Gust Speed Precip Events Conditions
12:15 AM 64.0 °F - 64.0 °F 100% 29.80 in 2.5 mi Calm Calm - 0.09 in Rain Heavy Rain
12:24 AM 64.0 °F - 64.0 °F 100% 29.80 in 4.0 mi South 4.6 mph - 0.12 in Rain Rain
12:40 AM 64.0 °F - 64.0 °F 100% 29.81 in 4.0 mi SSW 5.8 mph - 0.16 in Rain Rain
1:07 AM 64.0 °F - 64.0 °F 100% 29.80 in 5.0 mi South 5.8 mph - 0.01 in Rain Rain
1:56 AM 64.9 °F - 64.0 °F 97% 29.77 in 5.0 mi SSW 11.5 mph - 0.16 in Rain Heavy Rain
2:05 AM 64.9 °F - 64.0 °F 97% 29.79 in 3.0 mi SW 10.4 mph - 0.08 in Rain Heavy Rain
2:36 AM 64.0 °F - 64.0 °F 100% 29.78 in 8.0 mi SW 12.7 mph - 0.17 in Rain Light Rain
2:56 AM 64.0 °F - 64.0 °F 100% 29.76 in 10.0 mi SW 10.4 mph - 0.18 in Rain Light Rain
3:27 AM 64.0 °F - 64.0 °F 100% 29.77 in 10.0 mi SW 9.2 mph - 0.01 in Rain Light Rain
3:36 AM 64.0 °F - 63.0 °F 96% 29.78 in 10.0 mi SW 13.8 mph - 0.01 in Rain Light Rain
3:49 AM 64.0 °F - 63.0 °F 96% 29.77 in 9.0 mi SW 10.4 mph - 0.02 in Rain Light Rain
3:56 AM 64.0 °F - 62.1 °F 93% 29.75 in 10.0 mi SSW 10.4 mph - 0.02 in Rain Light Rain
4:56 AM 63.0 °F - 61.0 °F 93% 29.75 in 10.0 mi West 11.5 mph - 0.02 in Rain Light Rain
5:56 AM 62.1 °F - 61.0 °F 96% 29.69 in 10.0 mi Calm Calm - 0.01 in   Mostly Cloudy
6:56 AM 61.0 °F - 61.0 °F 100% 29.71 in 10.0 mi South 10.4 mph - 0.00 in   Mostly Cloudy
7:22 AM 61.0 °F - 61.0 °F 100% 29.72 in 10.0 mi SSW 8.1 mph - N/A   Overcast
7:39 AM 62.1 °F - 61.0 °F 96% 29.72 in 10.0 mi South 8.1 mph - N/A   Overcast
7:56 AM 62.1 °F - 61.0 °F 96% 29.69 in 10.0 mi South 6.9 mph - N/A   Overcast
8:53 AM 62.6 °F - 62.6 °F 100% 29.69 in 10.0 mi South 4.6 mph - 0.00 in Rain Light Rain
8:56 AM 62.1 °F - 62.1 °F 100% 29.67 in 10.0 mi South 5.8 mph - 0.00 in Rain Light Rain
9:56 AM 63.0 °F - 62.1 °F 97% 29.67 in 10.0 mi South 11.5 mph - 0.00 in   Overcast
10:30 AM 63.0 °F - 62.1 °F 97% 29.69 in 10.0 mi SSW 9.2 mph - 0.00 in Rain Light Rain
10:56 AM 64.0 °F - 62.1 °F 93% 29.67 in 10.0 mi South 12.7 mph - 0.00 in   Overcast
11:29 AM 64.0 °F - 63.0 °F 96% 29.69 in 10.0 mi SSW 11.5 mph - N/A   Overcast
11:37 AM 64.0 °F - 62.1 °F 93% 29.69 in 10.0 mi SSW 13.8 mph - N/A   Overcast
11:56 AM 64.9 °F - 63.0 °F 93% 29.66 in 10.0 mi SSW 13.8 mph - 0.00 in   Overcast
12:13 PM 64.9 °F - 63.0 °F 93% 29.68 in 10.0 mi SSW 13.8 mph - N/A   Overcast
12:20 PM 66.0 °F - 63.0 °F 90% 29.67 in 10.0 mi SSW 16.1 mph - N/A   Overcast
12:53 PM 64.4 °F - 62.6 °F 94% 29.68 in 1.8 mi WSW 15.0 mph - 0.18 in Rain Rain
12:56 PM 64.0 °F - 63.0 °F 96% 29.67 in 2.0 mi West 15.0 mph - 0.19 in Rain Rain
1:03 PM 62.1 °F - 60.1 °F 93% 29.68 in 7.0 mi West 18.4 mph 26.5 mph 0.00 in Rain Light Rain
1:56 PM 60.1 °F - 55.0 °F 83% 29.68 in 10.0 mi West 12.7 mph - 0.00 in   Overcast
2:56 PM 62.1 °F - 54.0 °F 75% 29.68 in 10.0 mi West 8.1 mph - N/A   Mostly Cloudy
3:22 PM 61.0 °F - 53.1 °F 75% 29.70 in 10.0 mi WNW 16.1 mph 23.0 mph N/A   Mostly Cloudy
3:56 PM 63.0 °F - 50.0 °F 63% 29.68 in 10.0 mi WNW 11.5 mph - N/A   Scattered Clouds
4:56 PM 63.0 °F - 46.9 °F 56% 29.70 in 10.0 mi West 16.1 mph - N/A   Scattered Clouds
5:56 PM 62.1 °F - 41.0 °F 46% 29.74 in 10.0 mi WNW 19.6 mph 25.3 mph N/A   Overcast
6:56 PM 57.0 °F - 37.0 °F 47% 29.81 in 10.0 mi NW 19.6 mph 25.3 mph N/A   Clear
7:56 PM 51.1 °F - 33.1 °F 50% 29.88 in 10.0 mi NW 17.3 mph 25.3 mph N/A   Overcast
8:56 PM 46.9 °F - 32.0 °F 56% 29.94 in 10.0 mi NW 12.7 mph 23.0 mph N/A   Clear
9:56 PM 44.1 °F 39.5 °F 30.9 °F 60% 29.97 in 10.0 mi NNW 8.1 mph - N/A   Clear
10:56 PM 43.0 °F 40.3 °F 28.0 °F 56% 30.03 in 10.0 mi North 4.6 mph - N/A   Clear
11:56 PM 39.9 °F - 27.0 °F 60% 30.06 in 10.0 mi Calm Calm - N/A   Clear